Zurück zum Katalog

YAOGAN-39 05A

AktivMilitärVLEO
NORAD 58557·PAYLOAD·🇨🇳 China

Gestartet Dec 10, 2023 von Xichang Satellite Launch Center

Loading…

Nächste Überflüge (nächste 24 Stunden)

TLE

AktuellSource: Space-Track

Epoche: Sep 14, 2026, 07:32 UTC

1 58557U 23194A   26257.31422131  .00007232  00000-0  30056-3 0  9999
2 58557  35.0006 216.8758 0004634  27.7827 332.3135 15.23094586153959

Verfolge YAOGAN-39 05A in Echtzeit mit AllMySat

Download on the App Store